Time,TemperatureF,DewpointF,PressureIn,WindDirection,WindDirectionDegrees,WindSpeedMPH,WindSpeedGustMPH,Humidity,HourlyPrecipIn,Conditions,Clouds,dailyrainin,SoftwareType,DateUTC
2014-02-21 00:04:00,35.2,33.0,30.15,NE,39,0.0,2.0,93,0.01,,,0.00,weatherlink.com 1.10,2014-02-21 05:04:00,
2014-02-21 00:19:00,35.1,34.0,30.16,ENE,65,0.0,1.0,94,0.02,,,0.01,weatherlink.com 1.10,2014-02-21 05:19:00,
2014-02-21 00:34:00,34.9,33.0,30.15,SE,134,1.0,1.0,94,0.02,,,0.01,weatherlink.com 1.10,2014-02-21 05:34:00,
2014-02-21 00:49:00,34.9,33.0,30.14,ESE,117,0.0,2.0,94,0.02,,,0.02,weatherlink.com 1.10,2014-02-21 05:49:00,
2014-02-21 01:04:00,34.9,33.0,30.13,East,86,1.0,3.0,94,0.02,,,0.02,weatherlink.com 1.10,2014-02-21 06:04:00,
2014-02-21 01:19:00,34.8,33.0,30.12,ESE,107,1.0,1.0,94,0.01,,,0.02,weatherlink.com 1.10,2014-02-21 06:19:00,
2014-02-21 01:34:00,34.9,34.0,30.12,NNE,25,0.0,3.0,95,0.01,,,0.02,weatherlink.com 1.10,2014-02-21 06:34:00,
2014-02-21 01:49:00,35.1,34.0,30.12,ENE,64,3.0,4.0,95,0.00,,,0.02,weatherlink.com 1.10,2014-02-21 06:49:00,
2014-02-21 02:04:00,35.3,34.0,30.12,NE,54,0.0,2.0,95,0.00,,,0.02,weatherlink.com 1.10,2014-02-21 07:04:00,
2014-02-21 02:19:00,35.3,34.0,30.11,ENE,59,1.0,1.0,95,0.00,,,0.02,weatherlink.com 1.10,2014-02-21 07:19:00,
2014-02-21 02:34:00,35.4,34.0,30.11,NE,48,2.0,3.0,95,0.00,,,0.02,weatherlink.com 1.10,2014-02-21 07:34:00,
2014-02-21 02:49:00,35.4,34.0,30.10,NNE,27,1.0,2.0,95,0.00,,,0.02,weatherlink.com 1.10,2014-02-21 07:49:00,
2014-02-21 03:04:00,35.5,34.0,30.10,East,94,1.0,1.0,95,0.00,,,0.02,weatherlink.com 1.10,2014-02-21 08:04:00,
2014-02-21 03:19:00,35.6,34.0,30.09,ESE,103,0.0,4.0,95,0.00,,,0.02,weatherlink.com 1.10,2014-02-21 08:19:00,
2014-02-21 03:34:00,35.5,34.0,30.09,East,94,1.0,3.0,95,0.00,,,0.02,weatherlink.com 1.10,2014-02-21 08:34:00,
2014-02-21 03:50:00,35.4,34.0,30.07,SE,124,1.0,3.0,95,0.01,,,0.03,weatherlink.com 1.10,2014-02-21 08:50:00,
2014-02-21 04:05:00,35.5,34.0,30.07,SSE,148,0.0,3.0,95,0.01,,,0.03,weatherlink.com 1.10,2014-02-21 09:05:00,
2014-02-21 04:20:00,35.6,34.0,30.07,NE,42,1.0,2.0,95,0.01,,,0.03,weatherlink.com 1.10,2014-02-21 09:20:00,
2014-02-21 04:35:00,35.8,35.0,30.06,ESE,117,1.0,5.0,95,0.01,,,0.03,weatherlink.com 1.10,2014-02-21 09:35:00,
2014-02-21 04:50:00,36.0,35.0,30.06,SE,143,2.0,3.0,95,0.00,,,0.03,weatherlink.com 1.10,2014-02-21 09:50:00,
2014-02-21 05:05:00,36.0,35.0,30.07,NNE,29,2.0,3.0,95,0.00,,,0.03,weatherlink.com 1.10,2014-02-21 10:05:00,
2014-02-21 05:20:00,36.2,35.0,30.08,ENE,58,0.0,4.0,95,0.00,,,0.03,weatherlink.com 1.10,2014-02-21 10:20:00,
2014-02-21 05:35:00,36.2,35.0,30.09,NE,40,0.0,2.0,94,0.00,,,0.03,weatherlink.com 1.10,2014-02-21 10:35:00,
2014-02-21 05:50:00,36.2,35.0,30.09,NNE,22,0.0,3.0,94,0.00,,,0.03,weatherlink.com 1.10,2014-02-21 10:50:00,
2014-02-21 06:05:00,36.3,35.0,30.08,ENE,78,4.0,4.0,94,0.00,,,0.03,weatherlink.com 1.10,2014-02-21 11:05:00,
2014-02-21 06:20:00,36.5,35.0,30.08,East,96,4.0,7.0,95,0.00,,,0.03,weatherlink.com 1.10,2014-02-21 11:20:00,
2014-02-21 06:35:00,36.8,36.0,30.08,NE,40,3.0,4.0,95,0.00,,,0.03,weatherlink.com 1.10,2014-02-21 11:35:00,
2014-02-21 06:50:00,36.8,36.0,30.09,NE,47,4.0,5.0,95,0.01,,,0.04,weatherlink.com 1.10,2014-02-21 11:50:00,
2014-02-21 07:05:00,37.0,36.0,30.09,NE,40,2.0,4.0,95,0.01,,,0.04,weatherlink.com 1.10,2014-02-21 12:05:00,
2014-02-21 07:20:00,37.1,36.0,30.08,ENE,60,2.0,7.0,95,0.01,,,0.04,weatherlink.com 1.10,2014-02-21 12:20:00,
2014-02-21 07:35:00,37.3,36.0,30.08,ESE,109,6.0,6.0,95,0.01,,,0.04,weatherlink.com 1.10,2014-02-21 12:35:00,
2014-02-21 07:50:00,37.4,36.0,30.07,ENE,65,1.0,4.0,95,0.00,,,0.04,weatherlink.com 1.10,2014-02-21 12:50:00,
2014-02-21 08:05:00,37.5,36.0,30.06,SE,141,2.0,6.0,95,0.00,,,0.04,weatherlink.com 1.10,2014-02-21 13:05:00,
2014-02-21 08:20:00,37.5,36.0,30.06,East,81,3.0,6.0,95,0.00,,,0.04,weatherlink.com 1.10,2014-02-21 13:20:00,
2014-02-21 08:35:00,37.6,36.0,30.06,ENE,75,5.0,8.0,95,0.00,,,0.04,weatherlink.com 1.10,2014-02-21 13:35:00,
2014-02-21 08:50:00,37.6,36.0,30.05,SSE,162,3.0,5.0,95,0.00,,,0.04,weatherlink.com 1.10,2014-02-21 13:50:00,
2014-02-21 09:05:00,37.6,37.0,30.05,NE,53,1.0,7.0,96,0.01,,,0.05,weatherlink.com 1.10,2014-02-21 14:05:00,
2014-02-21 09:20:00,37.7,37.0,30.03,North,351,4.0,9.0,96,0.01,,,0.05,weatherlink.com 1.10,2014-02-21 14:20:00,
2014-02-21 09:35:00,37.9,37.0,30.03,NNE,13,2.0,5.0,96,0.01,,,0.05,weatherlink.com 1.10,2014-02-21 14:35:00,
2014-02-21 09:50:00,38.0,37.0,30.03,SE,143,1.0,9.0,96,0.01,,,0.05,weatherlink.com 1.10,2014-02-21 14:50:00,
2014-02-21 10:05:00,38.2,37.0,30.02,ENE,71,3.0,5.0,96,0.00,,,0.05,weatherlink.com 1.10,2014-02-21 15:05:00,
2014-02-21 10:20:00,38.3,37.0,30.02,East,89,2.0,4.0,96,0.01,,,0.06,weatherlink.com 1.10,2014-02-21 15:20:00,
2014-02-21 10:35:00,38.4,37.0,30.02,North,7,1.0,9.0,96,0.01,,,0.06,weatherlink.com 1.10,2014-02-21 15:35:00,
2014-02-21 10:50:00,38.4,37.0,30.01,East,86,2.0,4.0,96,0.01,,,0.06,weatherlink.com 1.10,2014-02-21 15:50:00,
2014-02-21 11:05:00,38.5,38.0,29.99,SE,143,1.0,5.0,96,0.01,,,0.07,weatherlink.com 1.10,2014-02-21 16:05:00,
2014-02-21 11:20:00,38.6,38.0,29.98,SE,129,0.0,4.0,96,0.01,,,0.07,weatherlink.com 1.10,2014-02-21 16:20:00,
2014-02-21 11:35:00,38.7,38.0,29.97,East,94,1.0,4.0,96,0.01,,,0.07,weatherlink.com 1.10,2014-02-21 16:35:00,
2014-02-21 11:50:00,38.7,38.0,29.96,NNE,26,1.0,3.0,96,0.02,,,0.08,weatherlink.com 1.10,2014-02-21 16:50:00,
2014-02-21 12:05:00,38.8,38.0,29.96,NE,51,1.0,5.0,96,0.01,,,0.08,weatherlink.com 1.10,2014-02-21 17:05:00,
2014-02-21 12:21:00,39.0,38.0,29.95,ENE,70,1.0,3.0,96,0.01,,,0.08,weatherlink.com 1.10,2014-02-21 17:21:00,
2014-02-21 12:36:00,39.0,38.0,29.92,SE,125,1.0,4.0,96,0.01,,,0.08,weatherlink.com 1.10,2014-02-21 17:36:00,
2014-02-21 12:51:00,38.9,38.0,29.90,NE,40,0.0,4.0,96,0.00,,,0.08,weatherlink.com 1.10,2014-02-21 17:51:00,
2014-02-21 13:06:00,38.9,38.0,29.90,East,83,0.0,3.0,96,0.00,,,0.08,weatherlink.com 1.10,2014-02-21 18:06:00,
2014-02-21 13:21:00,39.1,38.0,29.88,SE,143,1.0,4.0,96,0.00,,,0.08,weatherlink.com 1.10,2014-02-21 18:21:00,
2014-02-21 14:21:00,39.3,38.0,29.83,NE,48,0.0,2.0,96,0.00,,,0.08,weatherlink.com 1.10,2014-02-21 19:21:00,
2014-02-21 14:36:00,39.3,38.0,29.82,NNE,25,0.0,2.0,96,0.00,,,0.08,weatherlink.com 1.10,2014-02-21 19:36:00,
2014-02-21 14:51:00,39.4,38.0,29.81,East,87,0.0,3.0,96,0.00,,,0.08,weatherlink.com 1.10,2014-02-21 19:51:00,
2014-02-21 15:06:00,39.3,38.0,29.80,NE,56,0.0,3.0,96,0.00,,,0.08,weatherlink.com 1.10,2014-02-21 20:06:00,
2014-02-21 15:21:00,39.3,38.0,29.79,East,82,0.0,1.0,96,0.00,,,0.08,weatherlink.com 1.10,2014-02-21 20:21:00,
2014-02-21 15:36:00,39.6,39.0,29.79,East,79,0.0,1.0,97,0.00,,,0.08,weatherlink.com 1.10,2014-02-21 20:36:00,
2014-02-21 15:51:00,39.6,39.0,29.78,East,79,0.0,0.0,97,0.01,,,0.09,weatherlink.com 1.10,2014-02-21 20:51:00,
2014-02-21 16:06:00,39.3,38.0,29.77,East,79,0.0,1.0,96,0.01,,,0.09,weatherlink.com 1.10,2014-02-21 21:06:00,
2014-02-21 16:21:00,38.9,38.0,29.76,East,79,0.0,1.0,96,0.01,,,0.09,weatherlink.com 1.10,2014-02-21 21:21:00,
2014-02-21 16:36:00,38.7,38.0,29.74,East,79,0.0,1.0,96,0.03,,,0.12,weatherlink.com 1.10,2014-02-21 21:36:00,
2014-02-21 16:51:00,39.3,39.0,29.73,East,81,0.0,0.0,97,0.03,,,0.12,weatherlink.com 1.10,2014-02-21 21:51:00,
2014-02-21 17:06:00,39.0,38.0,29.70,East,80,0.0,1.0,97,0.03,,,0.12,weatherlink.com 1.10,2014-02-21 22:06:00,
2014-02-21 17:21:00,38.4,37.0,29.70,East,81,0.0,0.0,96,0.03,,,0.12,weatherlink.com 1.10,2014-02-21 22:21:00,
2014-02-21 17:36:00,39.0,38.0,29.71,West,274,0.0,2.0,97,0.18,,,0.30,weatherlink.com 1.10,2014-02-21 22:36:00,
2014-02-21 17:51:00,39.1,38.0,29.70,WNW,283,0.0,1.0,97,0.21,,,0.33,weatherlink.com 1.10,2014-02-21 22:51:00,
2014-02-21 18:06:00,38.6,38.0,29.68,NNE,29,0.0,1.0,97,0.22,,,0.34,weatherlink.com 1.10,2014-02-21 23:06:00,
2014-02-21 18:21:00,38.9,38.0,29.67,East,81,2.0,3.0,97,0.22,,,0.34,weatherlink.com 1.10,2014-02-21 23:21:00,
2014-02-21 18:36:00,38.7,38.0,29.67,ESE,105,1.0,1.0,97,0.03,,,0.34,weatherlink.com 1.10,2014-02-21 23:36:00,
2014-02-21 18:51:00,38.9,38.0,29.68,SW,235,0.0,1.0,97,0.01,,,0.34,weatherlink.com 1.10,2014-02-21 23:51:00,
2014-02-21 19:06:00,38.9,38.0,29.67,SW,228,1.0,2.0,97,0.00,,,0.34,weatherlink.com 1.10,2014-02-22 00:06:00,
2014-02-21 19:21:00,39.1,38.0,29.70,SW,231,0.0,4.0,97,0.00,,,0.34,weatherlink.com 1.10,2014-02-22 00:21:00,
2014-02-21 19:36:00,39.7,39.0,29.70,West,269,1.0,11.0,97,0.00,,,0.34,weatherlink.com 1.10,2014-02-22 00:36:00,
2014-02-21 19:53:00,39.5,39.0,29.72,NW,312,3.0,9.0,97,0.00,,,0.34,weatherlink.com 1.10,2014-02-22 00:53:00,
2014-02-21 20:07:00,39.2,39.0,29.73,WSW,242,3.0,9.0,97,0.00,,,0.34,weatherlink.com 1.10,2014-02-22 01:07:00,
2014-02-21 20:22:00,38.8,38.0,29.72,WSW,255,0.0,5.0,97,0.00,,,0.34,weatherlink.com 1.10,2014-02-22 01:22:00,
2014-02-21 20:37:00,38.6,38.0,29.71,West,280,1.0,2.0,97,0.00,,,0.34,weatherlink.com 1.10,2014-02-22 01:37:00,
2014-02-21 20:52:00,38.4,38.0,29.72,WNW,303,2.0,4.0,97,0.00,,,0.34,weatherlink.com 1.10,2014-02-22 01:52:00,
2014-02-21 21:07:00,38.4,38.0,29.73,WNW,285,1.0,6.0,97,0.00,,,0.34,weatherlink.com 1.10,2014-02-22 02:07:00,
2014-02-21 21:22:00,38.2,38.0,29.73,NW,314,0.0,4.0,97,0.00,,,0.34,weatherlink.com 1.10,2014-02-22 02:22:00,
2014-02-21 21:37:00,37.9,37.0,29.75,West,277,0.0,2.0,97,0.00,,,0.34,weatherlink.com 1.10,2014-02-22 02:37:00,
2014-02-21 21:52:00,37.9,37.0,29.78,West,276,1.0,4.0,97,0.00,,,0.34,weatherlink.com 1.10,2014-02-22 02:52:00,
2014-02-21 22:07:00,37.8,37.0,29.79,West,259,1.0,5.0,97,0.00,,,0.34,weatherlink.com 1.10,2014-02-22 03:07:00,
2014-02-21 22:22:00,37.6,37.0,29.80,West,267,0.0,3.0,97,0.00,,,0.34,weatherlink.com 1.10,2014-02-22 03:22:00,
2014-02-21 22:37:00,37.3,37.0,29.82,WSW,257,0.0,1.0,97,0.00,,,0.34,weatherlink.com 1.10,2014-02-22 03:37:00,
2014-02-21 22:52:00,37.6,37.0,29.82,West,270,0.0,3.0,97,0.00,,,0.34,weatherlink.com 1.10,2014-02-22 03:52:00,
2014-02-21 23:07:00,37.4,37.0,29.82,West,260,0.0,2.0,97,0.00,,,0.34,weatherlink.com 1.10,2014-02-22 04:07:00,
2014-02-21 23:22:00,37.4,37.0,29.83,West,263,0.0,4.0,97,0.00,,,0.34,weatherlink.com 1.10,2014-02-22 04:22:00,
2014-02-21 23:37:00,37.1,36.0,29.84,West,263,0.0,2.0,97,0.00,,,0.34,weatherlink.com 1.10,2014-02-22 04:37:00,
2014-02-21 23:52:00,36.8,36.0,29.85,West,266,0.0,2.0,97,0.00,,,0.00,weatherlink.com 1.10,2014-02-22 04:52:00,